Time,TemperatureF,DewpointF,PressureIn,WindDirection,WindDirectionDegrees,WindSpeedMPH,WindSpeedGustMPH,Humidity,HourlyPrecipIn,Conditions,Clouds,dailyrainin,SoftwareType,DateUTC
2013-07-31 00:06:00,81.1,55.1,29.96,SSW,202,2.7,-999.0,41,-99.99,,,0.00,Acu-Link.com,2013-07-31 06:06:00,
2013-07-31 00:22:00,79.9,54.7,29.97,WNW,292,0.0,-999.0,42,-99.99,,,0.00,Acu-Link.com,2013-07-31 06:22:00,
2013-07-31 00:37:00,79.2,56.0,29.96,ESE,112,0.0,-999.0,45,-99.99,,,0.00,Acu-Link.com,2013-07-31 06:37:00,
2013-07-31 00:52:00,78.8,55.6,29.96,ENE,67,0.0,-999.0,45,-99.99,,,0.00,Acu-Link.com,2013-07-31 06:52:00,
2013-07-31 01:08:00,79.2,56.0,29.96,ESE,112,2.2,-999.0,45,-99.99,,,0.00,Acu-Link.com,2013-07-31 07:08:00,
2013-07-31 01:23:00,79.0,55.2,29.96,North,0,0.0,-999.0,44,-99.99,,,0.00,Acu-Link.com,2013-07-31 07:23:00,
2013-07-31 01:38:00,78.8,56.2,29.96,South,180,0.0,-999.0,46,-99.99,,,0.00,Acu-Link.com,2013-07-31 07:38:00,
2013-07-31 01:53:00,78.4,56.5,29.95,SE,135,0.0,-999.0,47,-99.99,,,0.00,Acu-Link.com,2013-07-31 07:53:00,
2013-07-31 02:08:00,77.9,56.6,29.96,East,90,1.1,-999.0,48,-99.99,,,0.00,Acu-Link.com,2013-07-31 08:08:00,
2013-07-31 02:23:00,77.4,57.3,29.95,West,270,0.0,-999.0,50,-99.99,,,0.00,Acu-Link.com,2013-07-31 08:23:00,
2013-07-31 02:38:00,77.2,57.7,29.95,NW,315,2.7,-999.0,51,-99.99,,,0.00,Acu-Link.com,2013-07-31 08:38:00,
2013-07-31 02:53:00,76.6,57.1,29.95,NNE,22,0.0,-999.0,51,-99.99,,,0.00,Acu-Link.com,2013-07-31 08:53:00,
2013-07-31 03:08:00,75.9,58.0,29.95,SSE,157,0.0,-999.0,54,-99.99,,,0.00,Acu-Link.com,2013-07-31 09:08:00,
2013-07-31 03:24:00,74.8,58.5,29.95,WNW,292,1.7,-999.0,57,-99.99,,,0.00,Acu-Link.com,2013-07-31 09:24:00,
2013-07-31 03:39:00,75.2,58.4,29.95,SSE,157,1.7,-999.0,56,-99.99,,,0.00,Acu-Link.com,2013-07-31 09:39:00,
2013-07-31 03:54:00,74.7,58.4,29.95,SW,225,2.2,-999.0,57,-99.99,,,0.00,Acu-Link.com,2013-07-31 09:54:00,
2013-07-31 04:09:00,75.6,59.3,29.96,South,180,3.7,-999.0,57,-99.99,,,0.00,Acu-Link.com,2013-07-31 10:09:00,
2013-07-31 04:24:00,75.2,59.9,29.96,SSE,157,2.7,-999.0,59,-99.99,,,0.00,Acu-Link.com,2013-07-31 10:24:00,
2013-07-31 04:40:00,75.2,59.9,29.97,ESE,112,2.7,-999.0,59,-99.99,,,0.00,Acu-Link.com,2013-07-31 10:40:00,
2013-07-31 04:55:00,74.8,59.0,29.97,SSW,202,1.1,-999.0,58,-99.99,,,0.00,Acu-Link.com,2013-07-31 10:55:00,
2013-07-31 05:10:00,75.0,58.7,29.98,SSE,157,2.7,-999.0,57,-99.99,,,0.00,Acu-Link.com,2013-07-31 11:10:00,
2013-07-31 05:26:00,75.6,58.8,29.98,SE,135,2.7,-999.0,56,-99.99,,,0.00,Acu-Link.com,2013-07-31 11:26:00,
2013-07-31 05:41:00,75.7,58.4,29.98,SSE,157,4.2,-999.0,55,-99.99,,,0.00,Acu-Link.com,2013-07-31 11:41:00,
2013-07-31 06:11:00,75.2,57.9,30.00,SSW,202,1.7,-999.0,55,-99.99,,,0.00,Acu-Link.com,2013-07-31 12:11:00,
2013-07-31 06:26:00,75.4,58.1,29.99,SSE,157,2.2,-999.0,55,-99.99,,,0.00,Acu-Link.com,2013-07-31 12:26:00,
2013-07-31 06:42:00,75.7,58.4,29.99,SSW,202,0.0,-999.0,55,-99.99,,,0.00,Acu-Link.com,2013-07-31 12:42:00,
2013-07-31 06:57:00,76.8,58.9,29.99,SE,135,3.2,-999.0,54,-99.99,,,0.00,Acu-Link.com,2013-07-31 12:57:00,
2013-07-31 07:12:00,79.7,58.8,29.99,SSW,202,0.0,-999.0,49,-99.99,,,0.00,Acu-Link.com,2013-07-31 13:12:00,
2013-07-31 07:27:00,80.1,58.6,30.00,SW,225,2.7,-999.0,48,-99.99,,,0.00,Acu-Link.com,2013-07-31 13:27:00,
2013-07-31 07:43:00,81.1,58.9,30.00,West,270,1.1,-999.0,47,-99.99,,,0.00,Acu-Link.com,2013-07-31 13:43:00,
2013-07-31 07:58:00,81.7,60.1,30.00,South,180,0.0,-999.0,48,-99.99,,,0.00,Acu-Link.com,2013-07-31 13:58:00,
2013-07-31 08:13:00,81.9,59.7,30.01,SSE,157,2.7,-999.0,47,-99.99,,,0.00,Acu-Link.com,2013-07-31 14:13:00,
2013-07-31 08:28:00,82.6,60.3,30.01,West,270,0.0,-999.0,47,-99.99,,,0.00,Acu-Link.com,2013-07-31 14:28:00,
2013-07-31 08:44:00,86.0,60.2,30.01,SSE,157,3.7,-999.0,42,-99.99,,,0.00,Acu-Link.com,2013-07-31 14:44:00,
2013-07-31 08:59:00,89.6,61.3,30.02,West,270,1.7,-999.0,39,-99.99,,,0.00,Acu-Link.com,2013-07-31 14:59:00,
2013-07-31 09:14:00,91.2,61.2,30.02,West,270,1.7,-999.0,37,-99.99,,,0.00,Acu-Link.com,2013-07-31 15:14:00,
2013-07-31 09:29:00,91.9,61.1,30.01,SSE,157,2.2,-999.0,36,-99.99,,,0.00,Acu-Link.com,2013-07-31 15:29:00,
2013-07-31 09:44:00,87.3,59.3,30.00,SE,135,3.2,-999.0,39,-99.99,,,0.00,Acu-Link.com,2013-07-31 15:44:00,
2013-07-31 10:00:00,91.6,59.2,30.02,SE,135,4.2,-999.0,34,-99.99,,,0.00,Acu-Link.com,2013-07-31 16:00:00,
2013-07-31 10:16:00,90.0,57.8,30.01,North,0,2.7,-999.0,34,-99.99,,,0.00,Acu-Link.com,2013-07-31 16:16:00,
2013-07-31 10:46:00,91.9,58.6,30.01,East,90,3.7,-999.0,33,-99.99,,,0.00,Acu-Link.com,2013-07-31 16:46:00,
2013-07-31 11:01:00,91.2,58.9,30.02,East,90,3.2,-999.0,34,-99.99,,,0.00,Acu-Link.com,2013-07-31 17:01:00,
2013-07-31 11:32:00,91.9,60.3,29.99,SSE,157,3.7,-999.0,35,-99.99,,,0.00,Acu-Link.com,2013-07-31 17:32:00,
2013-07-31 11:47:00,91.6,60.8,30.01,SSE,157,4.7,-999.0,36,-99.99,,,0.00,Acu-Link.com,2013-07-31 17:47:00,
2013-07-31 12:02:00,93.9,61.2,29.99,West,270,7.3,-999.0,34,-99.99,,,0.00,Acu-Link.com,2013-07-31 18:02:00,
2013-07-31 12:17:00,91.6,60.8,29.98,SSW,202,2.7,-999.0,36,-99.99,,,0.00,Acu-Link.com,2013-07-31 18:17:00,
2013-07-31 12:32:00,91.0,60.3,29.98,SSE,157,5.3,-999.0,36,-99.99,,,0.00,Acu-Link.com,2013-07-31 18:32:00,
2013-07-31 12:48:00,92.3,59.8,29.98,SW,225,0.0,-999.0,34,-99.99,,,0.00,Acu-Link.com,2013-07-31 18:48:00,
2013-07-31 13:03:00,93.0,58.7,29.98,SSW,202,3.2,-999.0,32,-99.99,,,0.00,Acu-Link.com,2013-07-31 19:03:00,
2013-07-31 13:18:00,93.4,58.2,29.97,SSW,202,6.3,-999.0,31,-99.99,,,0.00,Acu-Link.com,2013-07-31 19:18:00,
2013-07-31 13:33:00,95.9,57.5,29.97,WSW,247,5.8,-999.0,28,-99.99,,,0.00,Acu-Link.com,2013-07-31 19:33:00,
2013-07-31 13:48:00,97.3,56.6,29.96,WSW,247,3.2,-999.0,26,-99.99,,,0.00,Acu-Link.com,2013-07-31 19:48:00,
2013-07-31 14:04:00,97.7,57.0,29.94,West,270,4.7,-999.0,26,-99.99,,,0.00,Acu-Link.com,2013-07-31 20:04:00,
2013-07-31 14:19:00,98.6,55.5,29.93,South,180,6.8,-999.0,24,-99.99,,,0.00,Acu-Link.com,2013-07-31 20:19:00,
2013-07-31 14:34:00,99.0,55.8,29.92,SE,135,4.2,-999.0,24,-99.99,,,0.00,Acu-Link.com,2013-07-31 20:34:00,
2013-07-31 14:49:00,99.0,55.8,29.91,SSE,157,8.9,-999.0,24,-99.99,,,0.00,Acu-Link.com,2013-07-31 20:49:00,
2013-07-31 15:04:00,98.4,56.5,29.92,WSW,247,4.2,-999.0,25,-99.99,,,0.00,Acu-Link.com,2013-07-31 21:04:00,
2013-07-31 15:19:00,100.0,56.7,29.89,SSE,157,6.8,-999.0,24,-99.99,,,0.00,Acu-Link.com,2013-07-31 21:19:00,
2013-07-31 15:34:00,99.0,55.8,29.90,SSE,157,5.3,-999.0,24,-99.99,,,0.00,Acu-Link.com,2013-07-31 21:34:00,
2013-07-31 15:50:00,99.7,55.2,29.87,West,270,2.7,-999.0,23,-99.99,,,0.00,Acu-Link.com,2013-07-31 21:50:00,
2013-07-31 16:05:00,101.8,54.5,29.86,ESE,112,7.3,-999.0,21,-99.99,,,0.00,Acu-Link.com,2013-07-31 22:05:00,
2013-07-31 16:20:00,99.7,54.0,29.86,West,270,5.8,-999.0,22,-99.99,,,0.00,Acu-Link.com,2013-07-31 22:20:00,
2013-07-31 16:36:00,98.2,54.0,29.85,South,180,4.2,-999.0,23,-99.99,,,0.00,Acu-Link.com,2013-07-31 22:36:00,
2013-07-31 16:51:00,99.3,53.7,29.85,SE,135,4.2,-999.0,22,-99.99,,,0.00,Acu-Link.com,2013-07-31 22:51:00,
2013-07-31 17:06:00,93.4,57.3,29.86,SSE,157,16.1,-999.0,30,-99.99,,,0.00,Acu-Link.com,2013-07-31 23:06:00,
2013-07-31 17:36:00,92.1,59.7,29.87,SW,225,5.3,-999.0,34,-99.99,,,0.00,Acu-Link.com,2013-07-31 23:36:00,
2013-07-31 17:51:00,89.2,55.4,29.88,West,270,2.7,-999.0,32,-99.99,,,0.00,Acu-Link.com,2013-07-31 23:51:00,
2013-07-31 18:07:00,90.7,55.9,29.86,West,270,1.1,-999.0,31,-99.99,,,0.00,Acu-Link.com,2013-08-01 00:07:00,
2013-07-31 18:22:00,93.4,52.3,29.85,West,270,0.0,-999.0,25,-99.99,,,0.00,Acu-Link.com,2013-08-01 00:22:00,
2013-07-31 18:37:00,94.5,53.2,29.86,ESE,112,4.7,-999.0,25,-99.99,,,0.00,Acu-Link.com,2013-08-01 00:37:00,
2013-07-31 18:53:00,92.3,57.2,29.88,SSE,157,7.3,-999.0,31,-99.99,,,0.00,Acu-Link.com,2013-08-01 00:53:00,
2013-07-31 19:08:00,92.7,57.6,29.89,SSE,157,4.2,-999.0,31,-99.99,,,0.00,Acu-Link.com,2013-08-01 01:08:00,
2013-07-31 19:23:00,92.5,56.5,29.88,SE,135,4.7,-999.0,30,-99.99,,,0.00,Acu-Link.com,2013-08-01 01:23:00,
2013-07-31 19:38:00,91.4,57.3,29.87,ESE,112,5.8,-999.0,32,-99.99,,,0.00,Acu-Link.com,2013-08-01 01:38:00,
2013-07-31 19:53:00,91.0,56.1,29.88,SSE,157,4.2,-999.0,31,-99.99,,,0.00,Acu-Link.com,2013-08-01 01:53:00,
2013-07-31 20:08:00,90.9,55.1,29.88,ESE,112,6.3,-999.0,30,-99.99,,,0.00,Acu-Link.com,2013-08-01 02:08:00,
2013-07-31 20:23:00,90.1,54.4,29.89,SE,135,6.3,-999.0,30,-99.99,,,0.00,Acu-Link.com,2013-08-01 02:23:00,
2013-07-31 20:39:00,89.6,54.0,29.89,ESE,112,5.3,-999.0,30,-99.99,,,0.00,Acu-Link.com,2013-08-01 02:39:00,
2013-07-31 20:54:00,88.9,53.4,29.88,SE,135,6.8,-999.0,30,-99.99,,,0.00,Acu-Link.com,2013-08-01 02:54:00,
2013-07-31 21:09:00,89.1,53.6,29.89,SE,135,5.8,-999.0,30,-99.99,,,0.00,Acu-Link.com,2013-08-01 03:09:00,
2013-07-31 21:24:00,88.7,53.2,29.91,ESE,112,5.8,-999.0,30,-99.99,,,0.00,Acu-Link.com,2013-08-01 03:24:00,
2013-07-31 21:39:00,87.3,57.0,29.91,ESE,112,8.3,-999.0,36,-99.99,,,0.00,Acu-Link.com,2013-08-01 03:39:00,
2013-07-31 21:54:00,86.0,58.1,29.92,NE,45,6.3,-999.0,39,-99.99,,,0.00,Acu-Link.com,2013-08-01 03:54:00,
2013-07-31 22:09:00,85.6,58.5,29.94,East,90,7.3,-999.0,40,-99.99,,,0.00,Acu-Link.com,2013-08-01 04:09:00,
2013-07-31 22:25:00,85.1,58.0,29.93,SE,135,3.2,-999.0,40,-99.99,,,0.00,Acu-Link.com,2013-08-01 04:25:00,
2013-07-31 22:40:00,84.7,57.7,29.95,ESE,112,2.7,-999.0,40,-99.99,,,0.00,Acu-Link.com,2013-08-01 04:40:00,
2013-07-31 22:55:00,84.2,57.9,29.93,ESE,112,2.7,-999.0,41,-99.99,,,0.00,Acu-Link.com,2013-08-01 04:55:00,
2013-07-31 23:10:00,83.1,58.9,29.95,SSW,202,0.0,-999.0,44,-99.99,,,0.00,Acu-Link.com,2013-08-01 05:10:00,
2013-07-31 23:25:00,83.5,58.0,29.95,ESE,112,7.8,-999.0,42,-99.99,,,0.00,Acu-Link.com,2013-08-01 05:25:00,
2013-07-31 23:40:00,84.0,57.7,29.94,East,90,5.8,-999.0,41,-99.99,,,0.00,Acu-Link.com,2013-08-01 05:40:00,
2013-07-31 23:56:00,83.8,57.6,29.94,South,180,1.1,-999.0,41,-99.99,,,0.00,Acu-Link.com,2013-08-01 05:56:00,